Flag Weather past 2 weeks in Mazari Sharif, Afghanistan

Now
43 °F

Mostly cloudy.


Feels Like: 40 °F
Forecast: 37 / 52 °F
Wind: 5 mph from Southeast

Location: Termez Airport

Current Time: Nov 27, 2014 at 3:45:06 PM

Latest Report: Nov 27, 2014 at 3:00 PM


Visibility: N/A

Pressure: 30.27 "Hg

Humidity: 81%

Dew point: 37 °F

Location of Mazari SharifLocation

Historic Weather in Mazari Sharif — Graph

°F

Mazari Sharif temperature yesterday

Maximum temperature yesterday: 54 °F (at 2:30 PM)
Minimum temperature yesterday: 39 °F (at 5:00 AM)
Average temperature yesterday: 46 °F

Past Weeks' High & Low Weather Summary

 TemperatureHumidityPressure
High72 °F (Nov 17, 1:00 PM)100% (Nov 13, 2:00 AM)30.48 "Hg (Nov 13, 2:00 AM)
Low36 °F (Nov 15, 6:30 AM)15% (Nov 23, 2:30 PM)29.89 "Hg (Nov 24, 1:30 AM)
Average48 °F71%30.24 "Hg
* Reported Nov 12 2:30 PM — Nov 27 2:30 PM, Mazari Sharif, Weather by CustomWeather, © 2014

Note: Actual official high and low records may vary slightly from our data, if they occured in-between our weather recording intervals... More about our weather records

Advertising

Mazari Sharif weather history for previous 24 hours

 ConditionsComfort  
Time TempWeatherWind HumidityBarometerVisibility
2:30 PM
Nov 27
45 °FMostly cloudy.2 mph76%30.27 "HgN/A
2:00 PM43 °FMostly cloudy.1 mph76%30.27 "HgN/A
1:30 PM43 °FMostly cloudy.2 mph76%30.27 "HgN/A
1:00 PM43 °FMostly cloudy.2 mph76%30.30 "HgN/A
12:30 PM43 °FPartly sunny.5 mph76%30.30 "HgN/A
12:00 PM43 °FPartly sunny.3 mph81%30.30 "HgN/A
11:30 AM43 °FPartly sunny.5 mph81%30.30 "HgN/A
11:00 AM41 °FPartly sunny.6 mph81%30.30 "HgN/A
10:30 AM41 °FPartly sunny.7 mph87%30.30 "HgN/A
10:00 AM39 °FPartly sunny.7 mph93%30.30 "HgN/A
9:30 AM39 °FMostly cloudy.7 mph93%30.30 "HgN/A
9:00 AM39 °FMostly cloudy.9 mph93%30.30 "HgN/A
8:30 AM37 °FPartly sunny.13 mph93%30.27 "HgN/A
8:00 AM37 °FPartly sunny.13 mph93%30.27 "HgN/A
7:30 AM37 °FPartly sunny.13 mph93%30.24 "HgN/A
7:00 AM37 °FMostly cloudy.12 mph93%30.24 "HgN/A
6:30 AM37 °FMostly cloudy.15 mph93%30.21 "HgN/A
6:00 AM37 °FMostly cloudy.16 mph93%30.21 "HgN/A
5:30 AM37 °FMostly cloudy.17 mph100%30.18 "HgN/A
5:00 AM37 °FMostly cloudy.17 mph100%30.18 "HgN/A
4:30 AM37 °FMostly cloudy.15 mph100%30.18 "HgN/A
4:00 AM37 °FMostly cloudy.18 mph100%30.18 "Hg4 mi
3:30 AM39 °FMostly cloudy.14 mph93%30.15 "Hg4 mi
3:00 AM39 °FMostly cloudy.15 mph93%30.15 "Hg4 mi
2:30 AM39 °FMostly cloudy.15 mph93%30.15 "Hg4 mi
1:30 AM41 °FFog.14 mph93%30.15 "Hg3 mi
1:00 AM41 °FFog.15 mph93%30.12 "Hg3 mi
12:30 AM41 °FSprinkles. Fog.14 mph100%30.12 "Hg2 mi
12:00 AM41 °FFog.17 mph100%30.09 "Hg2 mi
11:30 PM
Nov 26
43 °FFog.20 mph93%30.09 "Hg3 mi
11:00 PM43 °FFog.18 mph93%30.09 "Hg3 mi
10:30 PM43 °FFog.17 mph100%30.07 "Hg3 mi
10:00 PM45 °FFog.17 mph93%30.07 "Hg2 mi
9:30 PM45 °FSprinkles. Fog.15 mph100%30.04 "Hg2 mi
9:00 PM46 °FSprinkles. Fog.13 mph93%30.04 "Hg2 mi
8:30 PM46 °FSprinkles. Fog.12 mph100%30.04 "Hg2 mi
8:00 PM46 °FSprinkles. Fog.15 mph100%30.01 "Hg2 mi
7:30 PM48 °FSprinkles. Fog.15 mph94%30.01 "Hg2 mi
7:00 PM48 °FSprinkles. Fog.13 mph100%29.98 "Hg2 mi
6:30 PM48 °FSprinkles. Fog.10 mph100%29.98 "Hg3 mi
6:00 PM50 °FSprinkles. Mostly cloudy.12 mph94%29.98 "Hg4 mi
5:30 PM50 °FSprinkles. Mostly cloudy.10 mph88%29.95 "Hg4 mi
5:00 PM52 °FSprinkles. Mostly cloudy.12 mph82%29.95 "Hg5 mi
4:30 PM52 °FMostly cloudy.2 mph82%29.92 "HgN/A
4:00 PM52 °FPartly sunny.2 mph77%29.92 "HgN/A
3:30 PM52 °FBroken clouds.3 mph82%29.92 "HgN/A
3:00 PM52 °FBroken clouds.3 mph82%29.95 "HgN/A
Weather by CustomWeather, © 2014

See weather overviewHow to use our weather pages